Location: Easthampton
(42.2676°N, 72.6690°W)
Time: 14:19:17
(UTC+00:00)

Gurwin Techsat 1B - Pass Details

Date: 08 April 2023
Orbit: 811 x 813 km, 98.9° (Epoch: 02 June)

Event Time Altitude Azimuth Distance (km) Brightness Sun altitude
Rises 07:44:21 0° 15° (NNE) 3,347 12.6 -27.0°
Reaches altitude 10° 07:46:43 10° 16° (NNE) 2,411 11.8 -26.7°
Maximum altitude 07:52:04 80° 104° (ESE) 832 8.6 -25.9°
Enters shadow 07:52:53 64° 172° (S) 901 8.6 -25.8°
